This demonstration page uses our WeatherBlox Daily Observations layout. Learn more.

Left ArrowRight Arrow

39.08367, -84.50855

Hourly Observations for January 18, 2021

Temp ( °F °C ) Dew Point ( °F °C ) Humidity (%) Winds ( mph kmh ) Pressure ( in mb ) Visibility ( mi km ) Precip ( " mm )
12:19 am 00:19 Cloudy 32 0 27 -2.8 82 82 WSW 7 11 29.85 1011 10 16.0934 0.001 0.001
12:51 am 00:51 Cloudy 32 0 27 -3 80 80 WSW 9 15 29.85 1011 10 16.0934 0.001 0.001
12:53 am 00:53 Cloudy 32 0 27 -2.8 82 82 WSW 9 15 29.83 1010 10 16.0934 0.001 0.001
1:53 am 01:53 Cloudy 32 0 27 -2.8 82 82 WSW 12 19 29.84 1010 10 16.0934 0.001 0.001
2:17 am 02:17 Cloudy 31 -0.6 26 -3.3 82 82 WSW 8 13 29.86 1011 10 16.0934 0 0
2:36 am 02:36 Cloudy 31 -0.6 26 -3.3 82 82 SW 8 13 29.87 1011 10 16.0934 0 0
2:53 am 02:53 Cloudy 31 -0.6 25 -3.9 79 79 WSW 9 15 29.86 1011 10 16.0934 0 0
3:00 am 03:00 Cloudy 31 -0.6 25 -3.9 79 79 WSW 9 15 29.88 1012 10 16.0934 0 0
3:17 am 03:17 Cloudy 31 -0.6 25 -3.9 79 79 SW 10 17 29.89 1012 10 16.0934 0 0
3:53 am 03:53 Cloudy 31 -0.6 25 -3.9 79 79 WSW 10 17 29.86 1011 10 16.0934 0 0
4:53 am 04:53 Cloudy 31 -0.6 26 -3.3 82 82 WSW 10 17 29.88 1012 10 16.0934 0 0
5:53 am 05:53 Cloudy 31 -0.6 26 -3.3 82 82 WSW 8 13 29.89 1012 10 16.0934 0 0
6:53 am 06:53 Cloudy 32 0 26 -3.3 79 79 W 9 15 29.91 1013 8 12.87472 0 0
7:53 am 07:53 Cloudy 32 0 26 -3.3 79 79 WSW 9 15 29.93 1014 10 16.0934 0 0
8:53 am 08:53 Cloudy 32 0 24 -4.4 73 73 W 10 17 29.96 1015 10 16.0934 0 0
9:53 am 09:53 Cloudy 32 0 22 -5.6 66 66 W 9 15 29.99 1016 10 16.0934 0 0
10:53 am 10:53 Cloudy 31 -0.6 23 -5 72 72 W 12 19 30.02 1017 10 16.0934 0 0
11:53 am 11:53 Cloudy 32 0 22 -5.6 66 66 WSW 8 13 30.02 1017 10 16.0934 0 0
12:53 pm 12:53 Cloudy 33 0.6 24 -4.4 70 70 SW 8 13 30 1016 10 16.0934 0 0
1:53 pm 13:53 Cloudy 34 1.1 25 -3.9 70 70 WSW 10 17 30 1016 10 16.0934 0 0
2:00 pm 14:00 Cloudy 34 1.1 25 -3.9 70 70 WSW 12 19 30.02 1016 10 16.0934 0 0
2:53 pm 14:53 Cloudy 34 1.1 26 -3.3 73 73 SW 9 15 30 1016 9 14.48406 0.001 0.001
3:53 pm 15:53 Cloudy with Light Snow 34 1.1 27 -2.8 76 76 SW 9 15 30.03 1017 6 9.65604 0.001 0.001
4:53 pm 16:53 Cloudy with Light Snow 34 1.1 28 -2.2 79 79 SW 9 15 30.06 1018 2.5 4.02335 0.001 0.001
5:01 pm 17:01 Cloudy with Light Snow 33 0.6 29 -1.7 85 85 SW 7 11 30.08 1019 3 4.82802 0.01 0.254
5:53 pm 17:53 Cloudy 33 0.6 29 -1.7 85 85 SSW 5 7 30.08 1019 10 16.0934 0.01 0.254
6:53 pm 18:53 Cloudy 33 0.6 28 -2.2 82 82 SW 6 9 30.09 1019 10 16.0934 0 0
7:53 pm 19:53 Cloudy 34 1.1 28 -2.2 79 79 SSW 6 9 30.11 1020 10 16.0934 0 0
8:53 pm 20:53 Mostly Clear 32 0 27 -2.8 82 82 SSW 6 9 30.11 1020 10 16.0934 0 0
9:53 pm 21:53 Cloudy 34 1.1 28 -2.2 79 79 Calm 30.12 1020 10 16.0934 0 0
10:53 pm 22:53 Cloudy 33 0.6 28 -2.2 82 82 Calm 30.12 1020 10 16.0934 0 0
11:53 pm 23:53 Cloudy 33 0.6 29 -1.7 85 85 SSW 6 9 30.12 1020 10 16.0934 0 0

Powered by AerisWeather